Regional Weather Roundup
Issued by NWS Newport/Morehead, NC

Current Version | Previous Version | Graphics & Text | Print | Product List | Glossary Off
Versions: 1 2 3 4 5 6 7 8 9 10 11 12 13 14 15 16 17 18 19 20 21 22 23 24 25 26 27 28 29 30 31 32 33 34 35 36 37 38 39 40 41 42 43 44 45 46 47 48 49 50

000
ASUS42 KMHX 020124
RWRMHX
WEATHER ROUNDUP FOR EASTERN NORTH CAROLINA
NATIONAL WEATHER SERVICE NEWPORT/MOREHEAD CITY NC
900 PM EDT WED APR 01 2015

NOTE: "FAIR" INDICATES FEW OR NO CLOUDS BELOW 12,000 FEET
WITH NO SIGNIFICANT WEATHER AND/OR OBSTRUCTIONS TO VISIBILITY

NCZ015>017-031-032-045>047-102-103-020200-
NORTH COAST

CITY           SKY/WX    TMP DP  RH WIND       PRES   REMARKS
EDENTON        CLEAR     45  35  68 E6        30.27R
ELIZABETH CITY CLEAR     43  32  65 CALM      30.27R
KITTY HAWK     CLEAR     41  33  73 E5        30.26R
MANTEO         CLEAR     43  32  64 E7        30.28R

$$

NCZ045>047-081-094-103-104-020200-
CENTRAL COAST

CITY           SKY/WX    TMP DP  RH WIND       PRES   REMARKS
FRISCO         CLEAR     39  30  70 E5        30.27R
SWANQUARTER      N/A     45 N/A N/A NE6G12    30.24R

$$

NCZ095-097-098-100-101-020200-
SOUTHERN COAST

CITY           SKY/WX    TMP DP  RH WIND       PRES   REMARKS
BEAUFORT       CLEAR     50  38  63 E9        30.25R
CEDAR ISLAND     N/A     50 N/A N/A E10G17    30.30S
JACKSONVILLE   CLEAR     51  42  71 SE6       30.24R
PINEY ISLAND   CLEAR    N/A N/A N/A E15G21    30.26R
WILMINGTON     CLEAR     53  43  68 E8        30.23R


$$

NCZ011>013-027>030-043-044-078>080-089-090>093-098-020200-
COASTAL PLAIN

CITY           SKY/WX    TMP DP  RH WIND       PRES   REMARKS
AHOSKIE        CLEAR     48  33  55 SE6       30.25R
CLINTON        CLEAR     55  36  50 CALM      30.21R
ELIZABETHTOWN  CLEAR     56  39  54 SE5       30.22R
GOLDSBORO      CLEAR     52  32  46 E3        30.20R
GREENVILLE     CLEAR     54  32  43 SE7       30.25R
HAVELOCK       CLEAR     49  39  68 E6        30.26R
KENANSVILLE    PTCLDY    46  39  75 CALM      30.25R
KINSTON        CLEAR     46  37  71 CALM      30.23R
NEW BERN       CLEAR     51  38  60 E6        30.26R
RICHLANDS      CLEAR     46  37  71 CALM      30.26R
ROCKY MOUNT    CLEAR     51  32  48 SE5       30.22R
WASHINGTON     CLEAR     49  36  60 E6        30.27R
WHITEVILLE     CLEAR     58  43  58 SE7       30.21R

$$

AMZ130-135-150-152-154-156-158-170-250-252-270-ANZ085-086-088-633-658-670-020200-
MARINE OBSERVATIONS

STATION/POSITION TIME  TEMP    WIND        PRES    WAVE   SWELL
                       AIR SEA DIR/SP/G            HT/PER HT/PER
                 (UTC) (F)     (DEG/KT/KT) (MB)    (FT/S) (FT/S)
CHESAPEAKE LIGHT 0100   42     150/ 10/ 11 1025.2
64 E VA BEACH    0050   46 53  340/  2/  4 1024.7    3/ 6   3/ 6
DUCK             0100   42 43  110/  7/  8 1024.2
2 E DUCK         0011      43                N/A     3/ 6
10 NE DUCK       NOT AVBL
OREGON INLET     0100   42 47   50/  6/  7 1025.2
HATTERAS CG      0100   44 57   90/  3/  5 1025.5
CAPE LOOKOUT     0100   54      40/ 20/ 21 1024.2
BEAUFORT LAB     0100   51 55   70/  8/ 12 1023.4
27 SE WRIGHTSVLE 0100   56 64   90/ 17/ 19 1024.8
5 SE WRIGHTSVLE  0100   56 56   90/ 14/ 16 1023.6
225 S CAPE HAT   0050   65 69   30/ 17/ 21 1020.9    7/ 8   2/11
41 SE CHARLESTON 0050   64 68   60/ 19/ 23 1020.6    7/ 7   2/11

$$



USA.gov is the U.S. government's official web portal to all federal, state and local government web resources and services.